sat.trackr.live / text

‹ back to catalog

STARLINK-3648

NORAD 51993 · 2022-025AP

PAYLOAD ACTIVE UNKNOWN

§ Identity

Operator
Country
US
Launch date
2022-03-09
Launch site
AFETR
Launch vehicle
Mass (kg)
RCS (m²)

Purposes: comms

External: N2YO · Heavens-Above · Gunter

§ Orbital elements

Epoch: 2026-09-19T15:35:21.281568Z

Period
93.79 min
Inclination
53.1589°
Eccentricity
0.0001450
Mean motion
15.35394341 rev/d
Perigee alt
458.8 km
Apogee alt
460.7 km
Semi-major
6,837.9 km
B*
3.5243e-5
RAAN
239.3946°
Arg perigee
96.2912°
Mean anomaly
263.8257°
Rev number
25,046

§ Raw data

STARLINK-36481 51993U 22025AP  26262.64955187  .00000849  00000+0  35243-4 0  99922 51993  53.1589 239.3946 0001450  96.2912 263.8257 15.35394341250463

JSON: /api/v1/satellites/51993 · /tle

For live sub-satellite position, see the globe view (requires WebGL).

§ Visibility from observer

Set your observer location to see the next 7 days of passes ≥ 10°. The values pass through the URL so the page stays shareable.

No JS? Fill the form by hand. The geolocation button needs JavaScript.